User: anonymous   Login
Location: Köln
(50.9375°N, 6.9603°E)
Time: 10:25:02
(UTC+02:00)
Language:

Falcon 9 debris - Orbit

View from above orbital plane
View from above orbital plane
View from above satellite
View from above satellite

Ground track
Ground track

The orbit data is extracted from the following two-line orbital elements,

1 44298U 19029BR  21171.26217723  .00002945  00000-0  63941-4 0  9997
2 44298  52.9990 159.3028 0003547 171.5760 188.5306 15.47910022118458
Epoch (UTC): 20 June 2021 06:17:32
Eccentricity: 0.0003547
inclination: 52.9990°
perigee height: 420 km
apogee height: 425 km
right ascension of ascending node: 159.3028°
argument of perigee: 171.5760°
revolutions per day: 15.47910022
mean anomaly at epoch: 188.5306°
orbit number at epoch: 11845

The dashed part of the orbit path shows where the satellite is in the earth's shadow,  

DLR